Flag for Germany Weather past 2 weeks in Norderstedt, Schleswig-Holstein, Germany

Now
68 °F

Partly sunny.


Feels Like: 68 °F
Forecast: 58 / 66 °F
Wind: 12 mph from Southwest

Location: Hamburg-Fuhlsbuettel

Current Time: Aug 29, 2014 at 2:26:43 PM

Latest Report: Aug 29, 2014 at 1:50 PM


Visibility: N/A

Pressure: 29.89 "Hg

Humidity: 69%

Dew point: 57 °F

Location of NorderstedtLocation

Historic Weather in Norderstedt — Graph

°F

Norderstedt temperature yesterday

Maximum temperature yesterday: 73 °F (at 2:20 PM)
Minimum temperature yesterday: 45 °F (at 3:50 AM)
Average temperature yesterday: 61 °F

Past Weeks' High & Low Weather Summary

 TemperatureHumidityPressure
High73 °F (Aug 28, 2:20 PM)100% (Aug 15, 3:20 AM)30.04 "Hg (Aug 15, 3:20 AM)
Low39 °F (Aug 26, 4:50 AM)33% (Aug 28, 2:50 PM)29.47 "Hg (Aug 18, 10:20 AM)
Average57 °F80%29.84 "Hg
* Reported Aug 14 1:20 PM — Aug 29 1:20 PM, Norderstedt, Weather by CustomWeather, © 2014

Note: Actual official high and low records may vary slightly from our data, if they occured in-between our weather recording intervals... More about our weather records

Advertising

Norderstedt weather history for previous 24 hours

 ConditionsComfort  
Time TempWeatherWind HumidityBarometerVisibility
1:20 PM
Aug 29
66 °FScattered clouds.12 mph73%29.89 "HgN/A
12:50 PM66 °FBroken clouds.9 mph83%29.89 "HgN/A
12:20 PM66 °FPartly sunny.8 mph83%29.89 "Hg6 mi
11:50 AM66 °FPartly sunny.8 mph88%29.89 "Hg6 mi
11:20 AM64 °FPartly sunny.7 mph88%29.89 "Hg5 mi
10:50 AM63 °FPartly sunny.3 mph100%29.89 "Hg4 mi
10:20 AM63 °FDrizzle. Partly sunny.3 mph94%29.89 "Hg4 mi
9:50 AM61 °FRain. Partly sunny.5 mph100%29.89 "Hg3 mi
9:20 AM63 °FLight rain. Partly sunny.5 mph88%29.89 "HgN/A
8:50 AM63 °FBroken clouds.6 mph83%29.89 "HgN/A
8:20 AM61 °FBroken clouds.6 mph83%29.89 "HgN/A
7:50 AM61 °FPassing clouds.5 mph83%29.89 "HgN/A
7:20 AM61 °FClear.6 mph83%29.89 "Hg10 mi
6:50 AM61 °FPassing clouds.6 mph88%29.89 "HgN/A
6:20 AM61 °FPassing clouds.8 mph94%29.89 "HgN/A
5:50 AM63 °FPassing clouds.6 mph88%29.89 "HgN/A
5:20 AM63 °FPassing clouds.5 mph88%29.89 "HgN/A
4:50 AM63 °FPassing clouds.5 mph77%29.89 "HgN/A
4:20 AM63 °FPassing clouds.5 mph73%29.89 "HgN/A
3:50 AM63 °FPassing clouds.7 mph73%29.92 "HgN/A
3:20 AM63 °FClear.5 mph73%29.92 "Hg10 mi
2:50 AM63 °FPassing clouds.6 mph68%29.92 "HgN/A
2:20 AM63 °FPartly cloudy.5 mph68%29.92 "HgN/A
1:50 AM64 °FPartly cloudy.6 mph60%29.92 "HgN/A
1:20 AM64 °FPartly cloudy.8 mph60%29.95 "HgN/A
12:50 AM63 °FClear.6 mph64%29.92 "Hg10 mi
12:20 AM64 °FClear.6 mph60%29.95 "Hg10 mi
11:50 PM
Aug 28
64 °FPassing clouds.7 mph60%29.95 "HgN/A
11:20 PM64 °FClear.7 mph60%29.95 "Hg10 mi
10:50 PM64 °FClear.6 mph60%29.95 "Hg10 mi
10:20 PM64 °FClear.6 mph60%29.95 "Hg10 mi
9:50 PM66 °FClear.7 mph52%29.95 "Hg10 mi
9:20 PM66 °FPassing clouds.7 mph52%29.95 "HgN/A
8:50 PM68 °FSunny.6 mph49%29.95 "Hg10 mi
8:20 PM70 °FPassing clouds.6 mph43%29.95 "HgN/A
7:50 PM70 °FPassing clouds.6 mph43%29.95 "HgN/A
7:20 PM72 °FPassing clouds.7 mph38%29.95 "HgN/A
6:50 PM72 °FPassing clouds.8 mph38%29.95 "HgN/A
6:20 PM73 °FPassing clouds.8 mph36%29.95 "HgN/A
5:20 PM73 °FSunny.8 mph33%29.98 "Hg10 mi
4:50 PM73 °FSunny.9 mph36%29.98 "Hg10 mi
4:20 PM73 °FPassing clouds.8 mph36%29.98 "HgN/A
3:50 PM73 °FPassing clouds.9 mph33%29.98 "HgN/A
3:20 PM73 °FPassing clouds.9 mph33%29.98 "HgN/A
2:50 PM73 °FPassing clouds.10 mph33%29.98 "HgN/A
2:20 PM73 °FSunny.7 mph38%30.01 "Hg10 mi
Weather by CustomWeather, © 2014

See weather overviewHow to use our weather pages